Location: Eisingen in Unterfranken
(49.7591°N, 9.8347°E)
Time: 14:11:58
(UTC+01:00)

N. Korean satellite - Pass Details

Date: 11 December 2022
Orbit: 407 x 441 km, 97.3° (Epoch: 05 February)

Event Time Altitude Azimuth Distance (km) Brightness Sun altitude
Rises 04:31:31 0° 33° (NNE) 2,496 10.6 -33.7°
Reaches altitude 10° 04:34:58 10° 70° (ENE) 1,599 9.9 -33.1°
Maximum altitude 04:36:01 11° 88° (E) 1,526 9.9 -33.0°
Drops below altitude 10° 04:37:03 10° 106° (ESE) 1,585 9.9 -32.8°
Sets 04:40:25 0° 143° (SE) 2,430 10.5 -32.3°
